| time (UTC) | temp C | wind direction | speed KPH | gust KPH | rain 1hr cm | rain 24hr cm | rain mn cm | humidity % | barometer mb |
| 20260510163028 | 5 | 136 | 0.0 | 3.2 | 0.00 | 0.00 | 0.00 | 93 | 1033.5 |
| 20260510161528 | 5 | 136 | 0.0 | 3.2 | 0.00 | 0.00 | 0.00 | 93 | 1033.5 |
| 20260510160033 | 5 | 136 | 0.0 | 3.2 | 0.00 | 0.00 | 0.00 | 94 | 1033.6 |
| 20260510154528 | 5 | 136 | 0.0 | 3.2 | 0.00 | 0.00 | 0.00 | 94 | 1033.7 |
| 20260510153037 | 5 | 126 | 0.0 | 3.2 | 0.00 | 0.00 | 0.00 | 93 | 1033.7 |
| 20260510151529 | 5 | 125 | 0.0 | 3.2 | 0.00 | 0.00 | 0.00 | 94 | 1033.7 |
| 20260510150027 | 5 | 125 | 0.0 | 1.6 | 0.00 | 0.00 | 0.00 | 94 | 1033.7 |
| 20260510144526 | 5 | 123 | 0.0 | 3.2 | 0.00 | 0.00 | 0.00 | 94 | 1033.7 |
| 20260510143028 | 5 | 86 | 0.0 | 3.2 | 0.00 | 0.00 | 0.00 | 94 | 1033.8 |
| 20260510141530 | 5 | 78 | 0.0 | 3.2 | 0.00 | 0.00 | 0.00 | 94 | 1033.8 |
| 20260510140028 | 4 | 57 | 0.0 | 3.2 | 0.00 | 0.00 | 0.00 | 94 | 1033.8 |
| 20260510134529 | 4 | 22 | 0.0 | 0.0 | 0.00 | 0.00 | 0.00 | 93 | 1033.9 |
| 20260510133028 | 4 | 22 | 0.0 | 0.0 | 0.00 | 0.00 | 0.00 | 93 | 1034.0 |
| 20260510131530 | 4 | 22 | 0.0 | 0.0 | 0.00 | 0.00 | 0.00 | 94 | 1034.0 |
| 20260510130030 | 4 | 17 | 0.0 | 0.0 | 0.00 | 0.00 | 0.00 | 93 | 1034.0 |
| 20260510124527 | 4 | 17 | 0.0 | 0.0 | 0.00 | 0.00 | 0.00 | 92 | 1034.1 |
| 20260510123012 | 4 | 17 | 0.0 | 0.0 | 0.00 | 0.00 | 0.00 | 93 | 1034.2 |
| 20260510121512 | 4 | 17 | 0.0 | 0.0 | 0.00 | 0.00 | 0.00 | 92 | 1034.2 |
| 20260510120010 | 4 | 17 | 0.0 | 0.0 | 0.00 | 0.00 | 0.00 | 92 | 1034.3 |
| 20260510114512 | 5 | 17 | 0.0 | 0.0 | 0.00 | 0.00 | 0.00 | 92 | 1034.1 |
| 20260510113011 | 5 | 17 | 0.0 | 0.0 | 0.00 | 0.00 | 0.00 | 91 | 1034.1 |
| 20260510111512 | 5 | 17 | 0.0 | 0.0 | 0.00 | 0.00 | 0.00 | 91 | 1034.0 |
| 20260510110019 | 5 | 17 | 0.0 | 0.0 | 0.00 | 0.00 | 0.00 | 90 | 1034.0 |
| 20260510104512 | 5 | 17 | 0.0 | 3.2 | 0.00 | 0.00 | 0.00 | 90 | 1034.0 |
| 20260510103013 | 6 | 17 | 0.0 | 0.0 | 0.00 | 0.00 | 0.00 | 89 | 1033.9 |
| 20260510101511 | 6 | 17 | 0.0 | 1.6 | 0.00 | 0.00 | 0.00 | 89 | 1033.8 |
| 20260510100013 | 6 | 17 | 0.0 | 3.2 | 0.00 | 0.00 | 0.00 | 89 | 1033.8 |
| 20260510094513 | 6 | 25 | 0.0 | 3.2 | 0.00 | 0.00 | 0.00 | 88 | 1033.8 |
| 20260510093013 | 6 | 25 | 0.0 | 3.2 | 0.00 | 0.00 | 0.00 | 89 | 1033.8 |
| 20260510091511 | 7 | 18 | 0.0 | 1.6 | 0.00 | 0.00 | 0.00 | 88 | 1033.6 |
| 20260510090011 | 7 | 22 | 0.0 | 3.2 | 0.00 | 0.00 | 0.00 | 88 | 1033.4 |
| 20260510084510 | 7 | 23 | 0.0 | 0.0 | 0.00 | 0.00 | 0.00 | 86 | 1033.3 |
| 20260510083015 | 7 | 23 | 0.0 | 3.2 | 0.00 | 0.00 | 0.00 | 85 | 1033.2 |
| 20260510081514 | 8 | 23 | 0.0 | 3.2 | 0.00 | 0.00 | 0.00 | 85 | 1033.1 |
| 20260510080032 | 8 | 9 | 0.0 | 3.2 | 0.00 | 0.00 | 0.00 | 84 | 1032.9 |
| 20260510074513 | 9 | 360 | 0.0 | 3.2 | 0.00 | 0.00 | 0.00 | 82 | 1032.7 |
| 20260510073025 | 10 | 360 | 0.0 | 3.2 | 0.00 | 0.00 | 0.00 | 81 | 1032.7 |
| 20260510071518 | 10 | 360 | 0.0 | 3.2 | 0.00 | 0.00 | 0.00 | 80 | 1032.6 |
| 20260510070014 | 11 | 360 | 0.0 | 4.8 | 0.00 | 0.00 | 0.00 | 78 | 1032.5 |
| 20260510064512 | 11 | 360 | 0.0 | 3.2 | 0.00 | 0.00 | 0.00 | 77 | 1032.5 |
| 20260510063017 | 12 | 360 | 0.0 | 4.8 | 0.00 | 0.00 | 0.00 | 75 | 1032.5 |
| 20260510061512 | 12 | 360 | 1.6 | 6.4 | 0.00 | 0.00 | 0.00 | 74 | 1032.4 |
| 20260510060032 | 13 | 360 | 1.6 | 6.4 | 0.00 | 0.00 | 0.00 | 73 | 1032.3 |
| 20260510054519 | 13 | 360 | 1.6 | 4.8 | 0.00 | 0.00 | 0.00 | 71 | 1032.2 |
| 20260510053016 | 14 | 360 | 1.6 | 4.8 | 0.00 | 0.00 | 0.00 | 70 | 1032.1 |
| 20260510051516 | 15 | 360 | 1.6 | 6.4 | 0.00 | 0.00 | 0.00 | 69 | 1032.0 |
| 20260510050018 | 15 | 360 | 0.0 | 3.2 | 0.00 | 0.00 | 0.00 | 68 | 1032.0 |
| 20260510044519 | 15 | 360 | 0.0 | 4.8 | 0.00 | 0.00 | 0.00 | 68 | 1031.9 |
| 20260510043018 | 15 | 360 | 1.6 | 4.8 | 0.00 | 0.00 | 0.00 | 66 | 1031.9 |
| 20260510041522 | 15 | 360 | 1.6 | 3.2 | 0.00 | 0.00 | 0.00 | 67 | 1031.9 |
| 20260510040016 | 15 | 360 | 0.0 | 6.4 | 0.00 | 0.00 | 0.00 | 66 | 1031.9 |
| 20260510034517 | 15 | 360 | 1.6 | 3.2 | 0.00 | 0.00 | 0.00 | 66 | 1032.0 |
| 20260510033016 | 15 | 360 | 0.0 | 3.2 | 0.00 | 0.00 | 0.00 | 66 | 1032.1 |
| 20260510031523 | 15 | 360 | 1.6 | 3.2 | 0.00 | 0.00 | 0.00 | 65 | 1032.1 |
| 20260510030016 | 15 | 360 | 1.6 | 4.8 | 0.00 | 0.00 | 0.00 | 69 | 1032.4 |
| 20260510024522 | 14 | 360 | 1.6 | 4.8 | 0.00 | 0.00 | 0.00 | 68 | 1032.5 |
| 20260510023019 | 14 | 360 | 1.6 | 4.8 | 0.00 | 0.00 | 0.00 | 69 | 1032.7 |
| 20260510021548 | 14 | 360 | 1.6 | 8.0 | 0.00 | 0.00 | 0.00 | 71 | 1032.8 |
| 20260510020019 | 13 | 360 | 1.6 | 4.8 | 0.00 | 0.00 | 0.00 | 71 | 1033.0 |
| 20260510014531 | 13 | 360 | 1.6 | 6.4 | 0.00 | 0.00 | 0.00 | 72 | 1033.1 |
| 20260510013020 | 12 | 360 | 1.6 | 4.8 | 0.00 | 0.00 | 0.00 | 75 | 1033.2 |
| 20260510011520 | 12 | 360 | 1.6 | 8.0 | 0.00 | 0.00 | 0.00 | 77 | 1033.3 |
| 20260510010032 | 12 | 360 | 1.6 | 6.4 | 0.00 | 0.00 | 0.00 | 78 | 1033.3 |
| 20260510004518 | 12 | 360 | 3.2 | 6.4 | 0.00 | 0.00 | 0.00 | 79 | 1033.2 |
| 20260510003023 | 12 | 360 | 1.6 | 9.7 | 0.00 | 0.00 | 0.00 | 80 | 1033.2 |
| 20260510001518 | 11 | 360 | 1.6 | 6.4 | 0.00 | 0.00 | 0.00 | 80 | 1033.2 |
| 20260510000020 | 11 | 360 | 3.2 | 9.7 | 0.00 | 0.00 | 0.00 | 82 | 1033.1 |
| 20260509234523 | 10 | 360 | 3.2 | 9.7 | 0.00 | 0.00 | 0.00 | 84 | 1033.0 |
| 20260509233026 | 10 | 360 | 3.2 | 9.7 | 0.00 | 0.00 | 0.00 | 85 | 1033.1 |
| 20260509231518 | 10 | 360 | 1.6 | 8.0 | 0.00 | 0.00 | 0.00 | 87 | 1033.1 |
| 20260509230034 | 10 | 360 | 1.6 | 8.0 | 0.00 | 0.00 | 0.00 | 88 | 1032.9 |
| 20260509224523 | 8 | 360 | 1.6 | 6.4 | 0.00 | 0.00 | 0.00 | 91 | 1032.7 |
| 20260509223020 | 8 | 360 | 3.2 | 8.0 | 0.00 | 0.00 | 0.00 | 93 | 1032.6 |
| 20260509221520 | 7 | 360 | 1.6 | 6.4 | 0.00 | 0.00 | 0.00 | 94 | 1032.4 |
| 20260509220022 | 7 | 360 | 1.6 | 4.8 | 0.00 | 0.00 | 0.00 | 94 | 1032.1 |
| 20260509214520 | 6 | 360 | 0.0 | 3.2 | 0.00 | 0.00 | 0.00 | 94 | 1032.2 |
| 20260509213022 | 6 | 360 | 0.0 | 0.0 | 0.00 | 0.00 | 0.00 | 92 | 1032.1 |
| 20260509211519 | 6 | 360 | 0.0 | 3.2 | 0.00 | 0.00 | 0.00 | 92 | 1032.0 |
| 20260509210021 | 7 | 360 | 0.0 | 3.2 | 0.00 | 0.00 | 0.00 | 90 | 1031.9 |
| 20260509204521 | 7 | 360 | 0.0 | 1.6 | 0.00 | 0.00 | 0.00 | 91 | 1031.7 |
| 20260509203026 | 7 | 360 | 0.0 | 3.2 | 0.00 | 0.00 | 0.00 | 92 | 1031.5 |
| 20260509201522 | 8 | 360 | 0.0 | 3.2 | 0.00 | 0.00 | 0.00 | 92 | 1031.5 |
| 20260509200024 | 8 | 360 | 0.0 | 3.2 | 0.00 | 0.00 | 0.00 | 93 | 1031.4 |
| 20260509194531 | 8 | 360 | 1.6 | 4.8 | 0.00 | 0.00 | 0.00 | 93 | 1031.3 |
| 20260509193024 | 8 | 360 | 1.6 | 3.2 | 0.00 | 0.00 | 0.00 | 92 | 1030.9 |
| 20260509191523 | 8 | 360 | 0.0 | 3.2 | 0.00 | 0.00 | 0.00 | 92 | 1030.6 |
| 20260509190025 | 8 | 360 | 1.6 | 6.4 | 0.00 | 0.00 | 0.00 | 92 | 1030.4 |
| 20260509184527 | 8 | 360 | 0.0 | 3.2 | 0.00 | 0.00 | 0.00 | 92 | 1030.2 |
| 20260509183024 | 8 | 360 | 0.0 | 4.8 | 0.00 | 0.00 | 0.00 | 92 | 1030.3 |
| 20260509181521 | 8 | 360 | 1.6 | 4.8 | 0.00 | 0.00 | 0.00 | 92 | 1030.2 |
| 20260509180025 | 8 | 360 | 0.0 | 6.4 | 0.00 | 0.00 | 0.00 | 92 | 1030.2 |
| 20260509174522 | 8 | 360 | 1.6 | 6.4 | 0.00 | 0.00 | 0.00 | 92 | 1030.2 |
| 20260509173030 | 8 | 360 | 1.6 | 9.7 | 0.00 | 0.00 | 0.00 | 92 | 1030.2 |
| 20260509171533 | 8 | 360 | 1.6 | 4.8 | 0.00 | 0.00 | 0.00 | 92 | 1030.3 |
| 20260509170025 | 8 | 360 | 1.6 | 8.0 | 0.00 | 0.00 | 0.00 | 91 | 1030.4 |
| 20260509164524 | 9 | 360 | 1.6 | 4.8 | 0.00 | 0.00 | 0.00 | 91 | 1030.5 |